FW7746 Weather Reports


Display with metric or nautical units.
time (UTC)temp
F
wind
direction
speed
MPH
gust
MPH
rain 1hr
in
rain 24hr
in
rain mn
in
humidity
%
barometer
mb
20260506204604 80 340 0.0 3.0 0.00 0.00 0.00 27 1014.0
20260506204104 80 309 1.0 7.0 0.00 0.00 0.00 26 1014.0
20260506203603 79 321 0.0 2.0 0.00 0.00 0.00 27 1014.0
20260506203104 79 55 0.0 3.0 0.00 0.00 0.00 28 1014.0
20260506202603 78 342 0.0 3.0 0.00 0.00 0.00 28 1014.1
20260506202104 77 311 1.0 9.0 0.00 0.00 0.00 28 1014.2
20260506201604 77 330 2.0 8.0 0.00 0.00 0.00 27 1014.2
20260506201104 77 328 1.0 3.0 0.00 0.00 0.00 30 1014.4
20260506200603 77 332 1.0 5.0 0.00 0.00 0.00 28 1014.4
20260506200104 78 332 2.0 9.0 0.00 0.00 0.00 28 1014.4
20260506195604 78 271 0.0 3.0 0.00 0.00 0.00 28 1014.3
20260506194604 77 316 0.0 3.0 0.00 0.00 0.00 29 1014.5
20260506194103 76 316 3.0 8.0 0.00 0.00 0.00 29 1014.5
20260506193104 76 317 2.0 5.0 0.00 0.00 0.00 29 1014.8
20260506192603 76 325 3.0 8.0 0.00 0.00 0.00 30 1014.8
20260506192104 77 326 2.0 9.0 0.00 0.00 0.00 29 1014.7
20260506191604 77 329 0.0 3.0 0.00 0.00 0.00 29 1014.8
20260506191104 76 328 1.0 6.0 0.00 0.00 0.00 30 1014.8
20260506190604 77 311 0.0 5.0 0.00 0.00 0.00 31 1014.8
20260506185604 77 328 0.0 1.0 0.00 0.00 0.00 30 1014.9
20260506185104 76 346 0.0 3.0 0.00 0.00 0.00 31 1015.0
20260506184104 76 293 0.0 2.0 0.00 0.00 0.00 31 1015.2
20260506183604 75 14 0.0 0.0 0.00 0.00 0.00 33 1015.1
20260506183104 74 323 0.0 3.0 0.00 0.00 0.00 33 1015.2
20260506180604 73 258 0.0 3.0 0.00 0.00 0.00 34 1015.2
20260506175604 72 357 0.0 2.0 0.00 0.00 0.00 36 1015.4
20260506175104 72 81 1.0 3.0 0.00 0.00 0.00 36 1015.3
20260506174603 72 180 0.0 2.0 0.00 0.00 0.00 36 1015.3
20260506174104 72 233 0.0 7.0 0.00 0.00 0.00 37 1015.3
20260506173603 71 258 0.0 3.0 0.00 0.00 0.00 38 1015.3
20260506173104 71 325 0.0 0.0 0.00 0.00 0.00 38 1015.3
20260506172604 71 325 0.0 0.0 0.00 0.00 0.00 37 1015.3
20260506172104 70 326 2.0 5.0 0.00 0.00 0.00 38 1015.3
20260506171604 70 316 0.0 5.0 0.00 0.00 0.00 39 1015.4
20260506171103 70 255 0.0 1.0 0.00 0.00 0.00 39 1015.4
20260506170604 69 192 0.0 0.0 0.00 0.00 0.00 40 1015.4
20260506170104 69 197 0.0 0.0 0.00 0.00 0.00 42 1015.3
20260506165604 68 199 0.0 2.0 0.00 0.00 0.00 42 1015.4
20260506165104 68 161 0.0 0.0 0.00 0.00 0.00 42 1015.5
20260506164604 68 196 0.0 2.0 0.00 0.00 0.00 43 1015.6
20260506164104 67 139 0.0 2.0 0.00 0.00 0.00 45 1015.7
20260506163604 67 138 0.0 1.0 0.00 0.00 0.00 46 1015.7
20260506163104 66 220 0.0 2.0 0.00 0.00 0.00 47 1015.8
20260506162604 65 217 0.0 2.0 0.00 0.00 0.00 47 1015.8
20260506162104 65 237 1.0 8.0 0.00 0.00 0.00 47 1015.7
20260506161604 64 213 1.0 5.0 0.00 0.00 0.00 48 1015.6
20260506161104 64 180 0.0 1.0 0.00 0.00 0.00 50 1015.7
20260506160603 63 200 0.0 1.0 0.00 0.00 0.00 51 1015.7
20260506160104 63 181 0.0 1.0 0.00 0.00 0.00 51 1015.7
20260506155604 62 205 0.0 0.0 0.00 0.00 0.00 52 1015.6
20260506155103 62 206 0.0 9.0 0.00 0.00 0.00 54 1015.7
20260506154103 60 209 0.0 0.0 0.00 0.00 0.00 57 1015.7
20260506153604 59 212 0.0 5.0 0.00 0.00 0.00 57 1015.7
20260506153104 59 178 0.0 3.0 0.00 0.00 0.00 59 1015.7
20260506152604 58 205 1.0 6.0 0.00 0.00 0.00 60 1015.7
20260506152104 58 245 1.0 3.0 0.00 0.00 0.00 62 1015.7
20260506151604 57 161 0.0 2.0 0.00 0.00 0.00 62 1015.7
20260506151104 57 182 0.0 3.0 0.00 0.00 0.00 63 1015.7
20260506150604 56 165 0.0 0.0 0.00 0.00 0.00 65 1015.7
20260506150104 56 166 0.0 2.0 0.00 0.00 0.00 66 1015.6
20260506145604 55 238 1.0 5.0 0.00 0.00 0.00 67 1015.7
20260506145104 54 180 0.0 3.0 0.00 0.00 0.00 68 1015.6
20260506144604 54 202 1.0 3.0 0.00 0.00 0.00 69 1015.5
20260506144104 53 210 0.0 3.0 0.00 0.00 0.00 70 1015.4
20260506143104 52 230 1.0 7.0 0.00 0.00 0.00 72 1015.4
20260506142104 51 225 0.0 5.0 0.00 0.00 0.00 73 1015.3
20260506141604 51 227 1.0 6.0 0.00 0.00 0.00 74 1015.2
20260506141103 51 221 0.0 2.0 0.00 0.00 0.00 74 1015.0
20260506140604 51 224 0.0 0.0 0.00 0.00 0.00 75 1014.9
20260506140104 51 204 0.0 2.0 0.00 0.00 0.00 75 1014.9
20260506135604 51 206 0.0 2.0 0.00 0.00 0.00 76 1014.8
20260506135103 51 169 0.0 2.0 0.00 0.00 0.00 76 1014.9
20260506134103 51 178 0.0 3.0 0.00 0.00 0.00 76 1014.7
20260506133604 51 177 0.0 3.0 0.00 0.00 0.00 76 1014.6
20260506133104 51 233 0.0 2.0 0.00 0.00 0.00 76 1014.6
20260506132603 51 212 0.0 2.0 0.00 0.00 0.00 76 1014.4
20260506132104 51 223 0.0 2.0 0.00 0.00 0.00 76 1014.4
20260506130603 51 196 0.0 5.0 0.00 0.00 0.00 77 1014.4
20260506130104 51 188 0.0 3.0 0.00 0.00 0.00 77 1014.3
20260506125604 51 210 0.0 5.0 0.00 0.00 0.00 76 1014.3
20260506125104 51 216 0.0 2.0 0.00 0.00 0.00 76 1014.3
20260506124604 51 176 0.0 1.0 0.00 0.00 0.00 76 1014.4
20260506124103 51 188 0.0 2.0 0.00 0.00 0.00 76 1014.4
20260506123604 51 211 0.0 2.0 0.00 0.00 0.00 76 1014.4
20260506123104 51 170 0.0 2.0 0.00 0.00 0.00 75 1014.4
20260506122604 51 218 0.0 3.0 0.00 0.00 0.00 75 1014.4
20260506122103 51 195 0.0 3.0 0.00 0.00 0.00 75 1014.3
20260506121604 51 190 0.0 3.0 0.00 0.00 0.00 74 1014.4
20260506120604 51 208 0.0 2.0 0.00 0.00 0.00 74 1014.2
20260506120104 52 227 1.0 3.0 0.00 0.00 0.00 74 1014.2
20260506115604 52 133 0.0 2.0 0.00 0.00 0.00 74 1014.1
20260506115104 52 229 0.0 2.0 0.00 0.00 0.00 74 1014.1
20260506114603 52 210 0.0 2.0 0.00 0.00 0.00 74 1014.1
20260506114104 52 197 0.0 2.0 0.00 0.00 0.00 74 1014.0
20260506113104 52 190 0.0 1.0 0.00 0.00 0.00 74 1013.9
20260506112604 52 174 0.0 2.0 0.00 0.00 0.00 74 1013.8
20260506111604 53 190 0.0 1.0 0.00 0.00 0.00 74 1013.8
20260506111104 53 197 0.0 2.0 0.00 0.00 0.00 74 1013.8
20260506110104 53 194 0.0 2.0 0.00 0.00 0.00 73 1013.8
20260506105603 53 187 0.0 1.0 0.00 0.00 0.00 73 1013.7
20260506105104 53 196 0.0 1.0 0.00 0.00 0.00 73 1013.7
20260506104604 54 196 0.0 2.0 0.00 0.00 0.00 72 1013.6
20260506102604 54 189 0.0 0.0 0.00 0.00 0.00 72 1013.8
20260506102104 54 188 0.0 1.0 0.00 0.00 0.00 72 1013.9
20260506101604 54 187 0.0 1.0 0.00 0.00 0.00 72 1013.9
20260506101104 54 193 0.0 1.0 0.00 0.00 0.00 72 1014.0
20260506100604 54 202 0.0 0.0 0.00 0.00 0.00 72 1014.0
20260506100105 54 197 0.0 0.0 0.00 0.00 0.00 72 1014.0
20260506095604 54 203 0.0 1.0 0.00 0.00 0.00 71 1014.1
20260506095104 54 198 0.0 2.0 0.00 0.00 0.00 71 1014.1
20260506094604 54 219 0.0 2.0 0.00 0.00 0.00 71 1014.0
20260506094104 54 197 0.0 0.0 0.00 0.00 0.00 70 1013.9
20260506093104 54 198 0.0 0.0 0.00 0.00 0.00 70 1013.9
20260506092603 54 211 0.0 3.0 0.00 0.00 0.00 70 1013.9
20260506091104 54 207 0.0 1.0 0.00 0.00 0.00 68 1013.8
20260506090104 54 190 0.0 0.0 0.00 0.00 0.00 66 1013.9
20260506085604 54 189 0.0 0.0 0.00 0.00 0.00 66 1013.9
20260506085103 54 189 0.0 0.0 0.00 0.00 0.00 66 1013.9
20260506084604 54 208 0.0 0.0 0.00 0.00 0.00 65 1013.9
20260506083104 54 205 0.0 0.0 0.00 0.00 0.00 65 1013.7
20260506082603 55 214 0.0 0.0 0.00 0.00 0.00 65 1013.7
20260506082104 54 216 0.0 3.0 0.00 0.00 0.00 64 1013.8
20260506081604 54 277 0.0 0.0 0.00 0.00 0.00 63 1013.8
20260506080604 54 290 0.0 0.0 0.00 0.00 0.00 63 1013.6
20260506080104 54 289 0.0 0.0 0.00 0.00 0.00 62 1013.6
20260506073104 55 290 0.0 0.0 0.00 0.00 0.00 60 1013.5
20260506072603 55 290 0.0 0.0 0.00 0.00 0.00 59 1013.4
20260506071603 55 290 0.0 0.0 0.00 0.00 0.00 58 1013.3
20260506071104 55 290 0.0 0.0 0.00 0.00 0.00 58 1013.3
20260506070604 56 290 0.0 0.0 0.00 0.00 0.00 58 1013.1
20260506070104 56 290 0.0 0.0 0.00 0.00 0.00 57 1013.0
20260506062104 57 290 0.0 0.0 0.00 0.00 0.00 56 1012.5
20260506061604 57 290 0.0 0.0 0.00 0.00 0.00 55 1012.5
20260506061104 57 290 0.0 0.0 0.00 0.00 0.00 55 1012.4
20260506060104 58 290 0.0 0.0 0.00 0.00 0.00 55 1012.2
20260506051104 62 290 0.0 0.0 0.00 0.00 0.00 49 1011.6
20260506050603 62 290 0.0 0.0 0.00 0.00 0.00 49 1011.6
20260506050104 63 290 0.0 0.0 0.00 0.00 0.00 48 1011.5
20260506045104 63 290 0.0 0.0 0.00 0.00 0.00 46 1011.5
20260506044604 64 290 0.0 0.0 0.00 0.00 0.00 46 1011.5
20260506043104 64 290 0.0 0.0 0.00 0.00 0.00 44 1011.4
20260506042604 64 290 0.0 0.0 0.00 0.00 0.00 44 1011.4
20260506042104 65 290 0.0 0.0 0.00 0.00 0.00 44 1011.3
20260506041604 65 290 0.0 0.0 0.00 0.00 0.00 44 1011.2
20260506041104 65 290 0.0 0.0 0.00 0.00 0.00 44 1011.1
20260506040604 66 290 0.0 0.0 0.00 0.00 0.00 45 1011.2
20260506040104 66 290 0.0 0.0 0.00 0.00 0.00 45 1011.2
20260506035104 67 290 0.0 0.0 0.00 0.00 0.00 45 1011.0
20260506034104 67 290 0.0 0.0 0.00 0.00 0.00 44 1010.9
20260506033606 68 290 0.0 0.0 0.00 0.00 0.00 44 1010.9
20260506033104 68 290 0.0 0.0 0.00 0.00 0.00 44 1010.9
20260506032604 68 290 0.0 0.0 0.00 0.00 0.00 44 1010.8
20260506032104 68 287 0.0 0.0 0.00 0.00 0.00 44 1010.8
20260506031604 69 285 0.0 1.0 0.00 0.00 0.00 43 1010.7
20260506030604 69 288 0.0 2.0 0.00 0.00 0.00 43 1010.6
20260506030104 69 238 1.0 3.0 0.00 0.00 0.00 42 1010.4
20260506025604 69 340 0.0 10.0 0.00 0.00 0.00 42 1010.4
20260506025104 70 328 0.0 2.0 0.00 0.00 0.00 41 1010.4
20260506024104 70 305 0.0 0.0 0.00 0.00 0.00 40 1010.1
20260506023604 70 302 0.0 1.0 0.00 0.00 0.00 39 1010.1
20260506023103 70 256 0.0 3.0 0.00 0.00 0.00 39 1010.1
20260506022604 71 285 0.0 3.0 0.00 0.00 0.00 39 1010.2
20260506022104 71 290 0.0 2.0 0.00 0.00 0.00 39 1010.1
20260506021603 71 244 0.0 0.0 0.00 0.00 0.00 38 1010.2
20260506021104 71 245 0.0 3.0 0.00 0.00 0.00 38 1010.2
20260506015604 72 290 0.0 1.0 0.00 0.00 0.00 39 1010.2
20260506015104 72 235 0.0 1.0 0.00 0.00 0.00 39 1010.2
20260506014604 72 235 0.0 3.0 0.00 0.00 0.00 39 1010.1
20260506014104 72 298 0.0 9.0 0.00 0.00 0.00 39 1010.1
20260506013604 72 285 2.0 8.0 0.00 0.00 0.00 38 1010.1
20260506013104 73 254 1.0 5.0 0.00 0.00 0.00 38 1010.1
20260506012604 73 246 1.0 3.0 0.00 0.00 0.00 38 1010.0
20260506012104 73 299 1.0 9.0 0.00 0.00 0.00 37 1010.0
20260506011604 74 334 2.0 5.0 0.00 0.00 0.00 36 1009.9
20260506011104 74 296 1.0 5.0 0.00 0.00 0.00 35 1009.8
20260506010604 74 328 1.0 5.0 0.00 0.00 0.00 35 1009.7
20260506010104 75 264 3.0 12.0 0.00 0.00 0.00 34 1009.7
20260506005104 76 331 0.0 3.0 0.00 0.00 0.00 32 1009.6
20260506004104 76 325 2.0 8.0 0.00 0.00 0.00 31 1009.5
20260506003604 76 321 2.0 7.0 0.00 0.00 0.00 31 1009.5
20260506003104 76 325 2.0 6.0 0.00 0.00 0.00 31 1009.4
20260506002104 75 253 0.0 3.0 0.00 0.00 0.00 31 1009.4
20260506001604 75 330 2.0 12.0 0.00 0.00 0.00 31 1009.4
20260506001104 75 328 1.0 3.0 0.00 0.00 0.00 31 1009.4
20260506000604 76 330 3.0 10.0 0.00 0.00 0.00 29 1009.3
20260506000104 77 322 5.0 10.0 0.00 0.00 0.00 28 1009.3
20260505235604 77 251 0.0 3.0 0.00 0.00 0.00 29 1009.3
20260505234604 77 324 5.0 18.0 0.00 0.00 0.00 28 1009.2
20260505233605 77 328 1.0 8.0 0.00 0.00 0.00 28 1009.2
20260505233104 77 325 2.0 10.0 0.00 0.00 0.00 28 1009.2
20260505232604 78 321 2.0 5.0 0.00 0.00 0.00 28 1009.4
20260505232104 78 315 0.0 5.0 0.00 0.00 0.00 28 1009.3
20260505231604 77 59 0.0 8.0 0.00 0.00 0.00 28 1009.4
20260505231104 77 328 1.0 15.0 0.00 0.00 0.00 28 1009.4
20260505230604 78 317 3.0 9.0 0.00 0.00 0.00 28 1009.3
20260505230104 78 315 0.0 3.0 0.00 0.00 0.00 28 1009.3
20260505225604 78 325 0.0 5.0 0.00 0.00 0.00 27 1009.5
20260505225104 78 350 1.0 6.0 0.00 0.00 0.00 28 1009.4
20260505224604 78 323 1.0 5.0 0.00 0.00 0.00 28 1009.4
20260505224104 78 300 1.0 3.0 0.00 0.00 0.00 27 1009.4
20260505223604 78 319 2.0 9.0 0.00 0.00 0.00 26 1009.5
20260505223104 79 333 0.0 2.0 0.00 0.00 0.00 26 1009.4
20260505222104 78 333 3.0 9.0 0.00 0.00 0.00 27 1009.5
20260505221604 79 331 0.0 2.0 0.00 0.00 0.00 26 1009.5
20260505221104 78 311 0.0 3.0 0.00 0.00 0.00 26 1009.5
20260505220604 78 327 1.0 5.0 0.00 0.00 0.00 27 1009.6
20260505220104 78 320 1.0 6.0 0.00 0.00 0.00 26 1009.6
20260505215604 78 314 1.0 3.0 0.00 0.00 0.00 26 1009.5
20260505215104 78 324 5.0 13.0 0.00 0.00 0.00 27 1009.6
20260505214604 77 315 1.0 5.0 0.00 0.00 0.00 28 1009.7
20260505214104 77 318 4.0 10.0 0.00 0.00 0.00 28 1009.7
20260505212604 77 330 3.0 10.0 0.00 0.00 0.00 28 1009.8
20260505212104 77 325 0.0 3.0 0.00 0.00 0.00 30 1009.8
20260505210604 78 325 4.0 10.0 0.00 0.00 0.00 29 1009.8
20260505210105 77 288 0.0 3.0 0.00 0.00 0.00 29 1009.8
20260505205604 77 330 4.0 8.0 0.00 0.00 0.00 28 1009.7
20260505205104 77 317 2.0 9.0 0.00 0.00 0.00 30 1009.7